This is the latest recevied weather packets stored in our database for station/object K4IR. If no packets are shown the sender has not sent any weather packets the latest 10 day(s).
| Time | Temp. | Humidity | Pressure | Rain* | Wind** | Luminosity | Snow |
|---|---|---|---|---|---|---|---|
| 1777954008 | 12.22° C | 93% | 1017.5 hPa | 0 mm | - | 0 W/m² | - |
| 1777953408 | 12.22° C | 93% | 1017.5 hPa | 0 mm | - | 0 W/m² | - |
| 1777952806 | 12.78° C | 92% | 1017.4 hPa | 0 mm | - | 0 W/m² | - |
| 1777952206 | 13.33° C | 92% | 1017.6 hPa | 0 mm | - | 0 W/m² | - |
| 1777951602 | 13.33° C | 91% | 1017.6 hPa | 0 mm | - | 0 W/m² | - |
| 1777951002 | 13.33° C | 91% | 1017.7 hPa | 0 mm | - | 0 W/m² | - |
| 1777950400 | 13.33° C | 91% | 1017.7 hPa | 0 mm | - | 0 W/m² | - |
| 1777949797 | 13.33° C | 90% | 1017.7 hPa | 0 mm | - | 0 W/m² | - |
| 1777949193 | 13.89° C | 90% | 1017.8 hPa | 0 mm | - | 0 W/m² | - |
| 1777948593 | 13.33° C | 89% | 1017.9 hPa | 0 mm | - | 0 W/m² | - |
| 1777947988 | 13.33° C | 89% | 1017.7 hPa | 0 mm | - | 0 W/m² | - |
| 1777947387 | 13.33° C | 89% | 1017.7 hPa | 0 mm | - | 0 W/m² | - |
| 1777946786 | 13.33° C | 88% | 1017.8 hPa | 0 mm | - | 0 W/m² | - |
| 1777946185 | 13.33° C | 87% | 1017.6 hPa | 0 mm | - | 0 W/m² | - |
| 1777945584 | 13.89° C | 86% | 1017.5 hPa | 0 mm | - | 0 W/m² | - |
| 1777944985 | 13.89° C | 85% | 1017.5 hPa | 0 mm | - | 0 W/m² | - |
| 1777944380 | 14.44° C | 85% | 1017.3 hPa | 0 mm | - | 0 W/m² | - |
| 1777943778 | 14.44° C | 83% | 1017.4 hPa | 0 mm | - | 0 W/m² | - |
| 1777943176 | 15° C | 81% | 1017.2 hPa | 0 mm | - | 0 W/m² | - |
| 1777942575 | 15.56° C | 78% | 1017 hPa | 0 mm | - | 0 W/m² | - |
| 1777941975 | 15.56° C | 76% | 1016.9 hPa | 0 mm | - | 0 W/m² | - |
| 1777941375 | 16.11° C | 75% | 1017 hPa | 0 mm | - | 0 W/m² | - |
| 1777940774 | 16.11° C | 73% | 1016.9 hPa | 0 mm | - | 0 W/m² | - |
| 1777940169 | 16.67° C | 72% | 1016.7 hPa | 0 mm | - | 0 W/m² | - |
| 1777939569 | 17.22° C | 70% | 1016.7 hPa | 0 mm | - | 1 W/m² | - |
* Rain latest hour (hover to see other rain measurements)
** Current wind speed in m/s (hover to see current wind gust speed)